Point Mugu, CA

12:42 AM PDT on March 27, 2017 (GMT -0700)
Point Mugu Naval Air Station

Weather History for KNTD - December, 2013

Change the Weather History Date:

Sunday, December 1, 2013

  Actual Average Record
Temperature  
Mean Temperature 68 °F -  
Max Temperature 82 °F 62 °F 82 °F (2013)
Min Temperature 54 °F 44 °F 37 °F (2004)
Cooling Degree Days 3    
Growing Degree Days 18 (Base 50)    
Moisture  
Dew Point 40 °F    
Average Humidity 44    
Maximum Humidity 69    
Minimum Humidity 15    
Precipitation  
Precipitation 0.00 in - - ()
Sea Level Pressure  
Sea Level Pressure 30.15 in    
Wind  
Wind Speed 7 mph (North)    
Max Wind Speed 14 mph    
Max Gust Speed 25 mph    
Visibility 9 miles    
Events      
Averages and records for this station are not official NWS values.
T = Trace of Precipitation, MM = Missing Value Source: NWS Daily Summary

Daily Weather History Graph

Daily Weather History Graph

Search for Another Location

Airport or City:

Trip Planner

Search our weather history database for the weather conditions in past years. The results will help you decide how hot, cold, wet, or windy it might be!

Date:

Astronomy

Dec. 01, 2013 Rise Set
Actual Time 6:44 AM PST 4:46 PM PST
Civil Twilight 6:16 AM PST 5:14 PM PST
Nautical Twilight 5:45 AM PST 5:45 PM PST
Astronomical Twilight 5:15 AM PST 6:15 PM PST
Moon 5:11 AM PST (12/1) 3:58 PM PST (12/1)
Length of Visible Light 10h 57m
Length of Day
10h 02m
Waning Crescent, 2% of the Moon is Illuminated
Dec 1
Waning Crescent
Dec 2
New
Dec 9
First Quarter
Dec 17
Full
Dec 25
Last Quarter

Hourly Weather History & Observations

Time (PST) Temp. Dew Point Humidity Pressure Visibility Wind Dir Wind Speed Gust Speed Precip Events Conditions
12:54 AM 57.0 °F 39.9 °F 53% 30.14 in 10.0 mi North 8.1 mph - N/A   Clear
1:54 AM 55.9 °F 39.9 °F 55% 30.15 in 10.0 mi North 6.9 mph - N/A   Clear
2:54 AM 54.0 °F 39.9 °F 59% 30.15 in 10.0 mi North 6.9 mph - N/A   Clear
3:54 AM 54.0 °F 39.9 °F 59% 30.15 in 10.0 mi North 6.9 mph - N/A   Clear
4:54 AM 55.9 °F 37.9 °F 51% 30.16 in 10.0 mi North 9.2 mph - N/A   Clear
5:54 AM 55.9 °F 37.9 °F 51% 30.18 in 10.0 mi NNW 10.4 mph - N/A   Clear
6:54 AM 55.0 °F 37.9 °F 53% 30.19 in 7.0 mi North 6.9 mph - N/A   Partly Cloudy
7:54 AM 60.1 °F 37.9 °F 44% 30.20 in 7.0 mi North 6.9 mph - N/A   Partly Cloudy
8:54 AM 66.0 °F 39.9 °F 38% 30.22 in 7.0 mi North 4.6 mph - N/A   Partly Cloudy
9:54 AM 73.9 °F 44.1 °F 34% 30.21 in 7.0 mi North 4.6 mph - N/A   Partly Cloudy
10:54 AM 82.0 °F 30.9 °F 16% 30.19 in 7.0 mi NE 13.8 mph 25.3 mph N/A   Partly Cloudy
11:54 AM 82.9 °F 30.9 °F 15% 30.15 in 7.0 mi NE 10.4 mph 19.6 mph N/A   Partly Cloudy
12:54 PM 79.0 °F 45.0 °F 30% 30.13 in 7.0 mi WNW 9.2 mph - N/A   Partly Cloudy
1:54 PM 80.1 °F 41.0 °F 25% 30.11 in 7.0 mi West 9.2 mph - N/A   Partly Cloudy
2:54 PM 78.1 °F 39.0 °F 25% 30.10 in 7.0 mi NW 9.2 mph - N/A   Partly Cloudy
3:54 PM 73.9 °F 42.1 °F 32% 30.11 in 10.0 mi WNW 6.9 mph - N/A   Clear
4:54 PM 68.0 °F 45.0 °F 43% 30.12 in 10.0 mi NNE 3.5 mph - N/A   Clear
5:54 PM 60.1 °F 46.9 °F 62% 30.14 in 10.0 mi SW 4.6 mph - N/A   Clear
6:54 PM 57.9 °F 45.0 °F 62% 30.14 in 10.0 mi ESE 3.5 mph - N/A   Clear
7:54 PM 59.0 °F 48.9 °F 69% 30.13 in 10.0 mi NNW 4.6 mph - N/A   Clear
8:54 PM 57.9 °F 46.0 °F 65% 30.14 in 10.0 mi West 3.5 mph - N/A   Clear
9:54 PM 61.0 °F 39.0 °F 44% 30.14 in 10.0 mi NNE 5.8 mph - N/A   Clear
10:54 PM 62.1 °F 36.0 °F 38% 30.13 in 10.0 mi NNE 8.1 mph - N/A   Clear
11:54 PM 60.1 °F 36.0 °F 41% 30.11 in 10.0 mi North 8.1 mph - N/A   Clear